Temperature
17 16 16 16 15 15 15 15 15 15 15 15 15 15 15 15 15 15 15 14 14 14 14 14 14 14 14 14 14 14 14 13 13 14 14 13 13 13 13 13 13 13 13
17 16 16 16 15 15 15 15 15 15 14 15 14 14 14 14 14 14 14 14 14 14 14 14 14 14 14 14 14 13 13 13 13 14 14 14 14 13 13 13 12 13 13
17 17 16 15 15 15 15 15 15 15 14 14 14 14 14 14 14 14 14 14 14 14 14 14 14 14 13 13 13 13 13 13 13 13 14 14 14 13 13 12 12 12 12
17 16 16 16 15 15 15 15 15 15 14 14 14 14 14 14 14 14 14 14 14 14 14 14 14 13 13 13 13 13 13 13 13 13 13 13 13 13 13 13 12 12 12
17 16 16 15 15 15 15 15 15 15 14 14 14 14 14 14 14 14 14 14 14 14 14 14 14 13 13 13 13 13 13 13 13 13 13 13 13 13 13 13 12 12 12
17 16 16 15 15 15 15 15 15 14 14 14 14 14 14 14 14 14 14 14 14 14 14 14 13 13 13 13 13 13 13 13 13 13 13 13 13 13 13 13 12 12 12
17 16 16 15 15 14 14 14 14 14 14 14 14 14 14 14 14 14 13 14 14 14 14 13 13 13 13 13 13 13 13 13 13 13 13 12 12 12 13 13 12 12 12
17 16 16 15 15 14 14 14 14 14 14 14 14 14 14 14 14 13 13 13 13 13 13 13 13 13 13 13 13 13 13 13 12 12 12 12 12 12 12 12 12 12 12
17 16 15 15 15 15 14 14 14 14 14 14 14 14 14 13 13 13 13 13 13 13 13 13 13 13 13 13 13 12 12 12 12 12 12 12 12 12 12 12 12 12 12
16 16 15 15 15 15 14 14 14 14 14 14 14 13 13 13 13 13 13 13 13 13 13 13 13 13 13 13 13 12 12 12 12 12 12 12 12 12 11 11 11 11 12
16 16 15 15 14 14 14 14 14 14 14 13 13 13 13 13 13 13 13 13 13 13 13 13 13 13 13 13 12 12 12 12 12 12 12 12 11 11 11 11 11 11 11
15 15 14 14 14 14 14 14 14 14 14 13 13 13 13 13 13 13 13 13 13 13 13 13 13 13 13 12 12 12 12 12 12 12 12 11 11 11 11 11 11 11 11
15 14 14 14 14 14 14 14 14 14 13 13 13 13 13 13 13 13 13 13 13 13 13 13 12 12 12 12 12 12 12 12 12 12 11 11 11 11 11 11 11 11 11
14 14 13 13 13 13 13 13 13 13 13 13 13 13 13 13 13 13 13 12 12 12 12 12 12 12 12 12 12 12 12 11 11 11 11 11 11 11 11 10 10 10 10
14 13 13 13 13 13 13 13 13 13 13 13 13 13 13 13 13 13 13 12 12 12 12 12 12 12 12 12 12 11 11 11 11 11 11 11 11 11 11 10 10 10 10
13 13 12 12 12 12 12 12 12 12 12 12 12 12 12 12 13 12 12 12 12 12 12 12 12 12 12 12 12 11 11 11 11 11 11 11 11 10 10 10 10 10 10
13 13 12 12 12 12 12 12 12 12 12 12 12 12 12 12 12 12 12 12 12 12 11 12 11 11 11 11 11 11 11 11 11 11 10 10 10 10 10 10 10 10 10
12 12 12 12 12 12 12 12 11 11 12 12 12 12 12 12 12 12 12 11 11 11 11 11 11 11 11 11 11 11 11 10 10 10 10 10 10 10 10 10 9 9 9
12 12 12 12 12 12 12 11 11 11 11 11 11 12 11 11 11 11 11 11 11 11 11 11 11 11 10 11 11 10 10 10 10 10 10 10 10 10 10 9 9 9 9
12 12 11 11 11 11 11 11 11 11 11 11 11 11 11 11 11 11 11 11 11 11 10 10 10 10 10 10 10 10 10 10 10 9 9 10 9 9 9 9 9 9 9
11 11 11 11 11 11 11 11 10 10 10 11 11 11 11 11 11 11 11 10 10 10 10 10 10 10 10 10 10 10 9 9 9 9 9 9 9 9 9 9 8 9 9
11 11 11 10 10 10 10 10 10 10 10 10 10 10 10 10 10 10 10 10 10 10 9 9 9 9 9 9 9 9 9 9 9 8 9 9 9 9 9 8 8 8 8
10 10 10 10 10 10 10 9 9 9 9 9 9 10 10 10 10 10 9 9 9 9 9 9 9 9 9 9 9 9 9 9 8 8 8 8 8 8 8 8 8 8 8
10 10 10 9 9 9 9 9 9 9 9 9 9 9 9 9 9 9 9 9 9 9 9 8 8 8 8 8 8 8 8 8 8 8 8 8 8 8 8 8 8 7 7
9 9 9 9 9 8 8 8 8 8 8 8 8 8 9 9 9 9 9 8 8 8 8 8 8 8 8 8 8 8 8 8 8 7 7 7 7 7 7 7 7 7 7
9 9 8 8 8 8 8 8 8 8 8 8 8 8 8 8 8 8 8 8 8 8 8 8 8 7 8 7 7 7 7 7 7 7 6 6 7 7 7 7 7 7 7
Wind_Speed
4 3 3 2 2 3 4 5 5 5 5 4 3 3 3 3 2 2 3 3 3 3 3 2 3 3 3 3 3 4 4 3 3 3 4 4 5 6 5 5 5 6 7
4 4 3 3 3 3 4 5 5 5 5 4 3 3 3 2 2 2 2 2 2 2 2 2 2 2 2 2 3 2 2 2 1 1 0 2 3 4 5 4 4 5 5
6 5 4 4 4 4 4 5 5 5 6 5 4 3 3 2 3 2 2 1 2 2 1 1 1 2 2 2 1 1 1 1 1 2 2 1 1 2 3 5 5 5 4
6 5 5 5 5 4 4 5 5 6 6 6 5 5 4 3 3 2 2 2 2 1 1 1 1 1 1 1 1 1 0 0 1 1 2 2 2 0 1 2 4 5 5
6 6 6 5 5 4 4 5 5 5 6 6 6 5 4 3 2 2 2 2 2 1 1 1 1 1 1 1 1 0 0 0 1 1 1 1 1 1 1 1 2 3 4
6 6 6 5 5 4 4 4 5 5 5 6 6 6 5 4 3 3 3 2 2 1 2 1 1 1 1 1 1 0 0 0 1 1 0 0 0 0 0 1 1 2 3
6 6 6 6 6 5 5 5 6 5 6 6 6 6 5 5 4 4 3 3 3 2 3 3 2 2 1 1 1 1 1 1 0 1 0 0 1 1 1 1 0 1 1
6 6 6 6 6 6 6 6 6 6 6 6 5 5 5 4 3 4 3 3 3 3 3 3 3 2 2 2 2 2 2 1 1 0 1 1 1 1 1 1 1 1 0
5 5 5 6 6 6 7 7 7 6 6 6 6 5 5 5 4 4 4 3 3 3 3 3 3 3 3 3 3 2 2 2 1 1 1 1 1 1 2 2 2 2 2
4 5 5 5 5 6 6 6 7 7 6 6 6 5 5 5 5 4 4 4 4 4 4 4 3 3 3 4 4 3 2 2 2 1 2 2 2 1 2 2 2 2 2
3 4 5 5 5 5 5 6 6 6 6 6 6 6 6 6 5 5 5 5 4 4 5 5 4 4 4 4 4 4 3 3 3 2 2 2 2 2 2 2 2 2 2
2 3 4 5 5 5 5 5 6 6 6 6 6 6 6 6 5 5 5 5 5 5 5 5 4 4 4 4 4 4 4 4 3 3 3 3 2 2 2 2 2 2 3
1 2 3 4 4 5 5 5 5 6 6 6 6 6 6 6 6 6 5 5 5 5 5 5 5 5 5 5 5 5 5 4 4 4 4 4 3 3 3 3 3 3 3
1 2 2 3 3 4 4 5 5 5 6 6 6 6 6 6 6 5 5 5 5 5 5 5 5 5 5 5 5 5 5 5 4 4 4 4 4 4 3 3 3 3 4
1 2 2 2 2 3 3 4 5 5 5 6 6 5 5 5 5 5 4 4 4 5 5 5 5 5 4 4 5 5 5 5 5 4 4 4 3 2 3 3 3 4 4
2 2 2 2 2 3 3 3 4 4 5 6 5 4 4 4 4 4 4 4 4 5 5 5 5 5 4 3 3 5 6 6 5 5 5 4 4 4 4 3 4 5 6
2 2 2 2 2 2 3 3 4 4 5 5 5 4 4 4 4 4 4 4 4 4 4 5 5 5 4 4 5 5 6 6 5 5 5 4 4 5 5 4 5 5 6
2 2 2 2 2 2 2 3 3 4 4 4 4 4 4 4 4 4 4 4 4 4 4 5 5 4 3 4 5 6 7 6 6 5 6 5 5 4 5 5 5 5 6
2 2 2 2 2 2 2 3 3 4 4 4 4 4 4 4 4 4 5 4 4 4 4 4 5 5 4 3 4 5 5 5 6 5 6 5 6 2 4 6 6 6 5
1 1 1 1 1 1 2 3 3 4 4 5 5 5 4 4 5 4 4 4 3 4 3 4 4 5 4 4 4 6 4 5 5 5 5 4 4 3 4 6 6 6 5
1 1 0 0 1 1 2 2 2 3 3 3 3 4 4 4 4 4 3 3 3 3 3 3 4 4 4 4 4 5 5 4 5 5 5 4 4 4 6 7 6 6 6
1 1 1 1 1 0 1 2 2 2 2 2 3 3 3 3 3 3 3 4 4 4 3 3 3 3 4 3 4 6 7 5 5 5 5 3 4 6 7 6 5 5 5
1 1 1 1 2 2 1 1 1 1 2 2 3 3 3 3 3 3 3 3 4 4 3 3 4 4 4 3 5 6 7 7 6 5 4 4 5 7 7 7 6 6 5
2 1 1 1 2 2 2 2 2 1 2 2 2 3 3 3 3 3 3 4 4 4 4 4 4 4 3 3 3 4 5 7 7 5 5 6 7 8 6 6 6 5 5
1 1 1 1 2 2 3 3 3 2 2 2 2 3 3 3 3 3 3 4 4 4 5 5 5 4 4 3 3 4 4 5 5 5 4 4 4 5 5 5 5 5 5
1 1 2 2 2 3 3 3 3 3 3 3 2 3 3 3 3 3 3 3 4 3 4 5 5 5 5 4 5 5 5 5 5 5 5 5 5 5 5 5 5 5 5
Wind_Direction
181 169 169 170 179 185 179 170 171 164 157 152 155 143 143 131 114 98 90 93 95 94 88 89 92 88 89 94 104 101 95 84 81 88 83 86 71 60 53 45 45 47 43
184 175 180 178 185 180 186 182 177 175 168 159 157 156 150 148 130 117 107 105 105 103 100 99 101 105 101 103 103 106 95 77 32 17 59 107 103 64 53 48 45 42 45
198 189 190 187 189 190 192 190 189 182 178 165 152 142 147 162 152 147 136 120 113 115 112 94 106 110 118 108 110 118 104 77 59 13 349 355 63 71 66 53 48 44 41
204 198 195 196 197 199 200 198 192 188 181 175 168 174 185 182 176 167 157 155 140 133 138 126 123 121 109 114 141 107 79 35 62 64 18 20 54 79 90 72 57 46 42
203 202 202 202 201 197 199 203 193 186 183 183 181 192 196 190 173 173 171 175 156 161 170 166 157 152 142 135 110 90 326 331 360 20 65 71 61 352 116 83 56 55 47
201 201 201 203 201 192 193 201 197 187 184 189 189 195 194 190 179 180 188 194 183 190 188 182 190 186 177 164 151 169 188 321 10 339 26 347 14 60 132 152 75 52 46
196 195 194 200 200 196 195 196 196 193 191 194 198 200 201 198 196 192 197 203 204 205 207 200 198 185 177 183 187 204 210 204 229 290 322 325 341 313 273 212 271 35 58
196 198 198 200 200 201 199 197 196 195 195 198 202 203 198 203 205 203 201 211 220 216 206 204 198 193 191 192 191 208 202 212 207 224 240 245 263 273 271 256 239 256 258
200 204 202 202 202 202 202 199 196 194 195 200 201 202 202 206 210 210 209 212 218 212 202 201 199 193 194 199 199 212 208 213 227 237 224 232 232 250 258 254 258 267 269
203 205 202 201 202 203 204 202 201 199 198 203 202 201 208 210 214 213 213 215 211 206 201 198 197 192 191 201 207 217 219 220 213 249 256 246 236 233 227 243 260 264 266
209 206 204 205 202 202 202 205 206 203 203 207 208 203 206 210 210 213 216 215 210 204 204 201 201 197 198 203 201 213 217 228 224 225 235 235 242 235 238 248 247 244 239
214 205 202 201 200 203 207 209 210 207 207 208 208 209 207 207 209 213 217 215 209 208 209 201 202 203 207 211 210 217 219 228 234 236 235 232 223 238 248 247 243 234 229
199 193 193 200 203 205 208 213 213 210 206 204 206 211 210 208 211 215 215 216 215 212 211 207 207 207 211 214 219 223 228 232 234 235 239 237 229 233 237 239 243 239 230
184 185 196 206 213 215 214 215 215 209 204 203 204 211 214 211 211 216 216 218 217 215 211 211 210 213 214 218 220 221 224 229 232 237 240 241 238 244 249 245 246 243 236
214 212 211 213 220 221 224 219 217 211 205 206 208 212 214 211 208 208 213 216 216 220 218 215 212 213 216 222 224 222 226 229 232 236 242 241 242 272 261 255 251 250 245
241 230 222 223 231 228 225 227 225 215 209 211 214 212 214 212 207 203 207 210 211 218 219 219 219 215 216 196 228 240 226 231 235 237 239 235 226 230 227 244 259 257 246
246 238 234 225 234 236 224 222 230 220 209 211 211 209 209 207 207 201 200 205 207 209 218 218 218 221 206 179 206 236 236 231 235 239 240 235 230 232 240 228 232 241 243
249 238 229 233 245 247 234 219 215 211 205 208 209 205 210 211 210 204 203 210 211 207 219 222 216 221 212 186 206 223 234 236 234 237 243 239 235 232 247 241 240 246 243
248 238 228 226 234 241 231 208 204 201 200 206 209 206 207 208 209 211 211 209 210 214 220 228 221 217 206 177 201 223 234 237 236 235 237 243 241 226 253 247 246 249 244
290 260 245 232 239 242 217 197 198 198 202 208 210 209 205 205 207 211 209 206 211 215 218 229 228 224 221 174 195 225 232 240 240 240 236 230 248 223 240 243 247 253 254
19 40 35 270 270 247 212 197 200 215 221 214 211 208 206 208 207 206 211 208 210 212 216 228 233 233 235 192 194 225 238 242 245 244 243 235 221 232 241 253 248 255 262
50 64 66 27 13 330 219 211 228 249 242 222 213 213 212 210 211 205 214 214 209 211 218 230 240 242 235 226 209 221 242 259 246 250 253 250 223 232 235 240 246 250 253
49 46 61 46 28 17 333 294 296 267 229 218 214 211 212 210 211 207 210 216 216 220 223 231 242 245 243 226 213 225 234 244 250 253 260 257 240 238 233 228 234 233 237
35 24 44 40 9 352 342 347 342 284 233 225 221 215 215 218 217 215 216 222 221 224 229 235 244 251 245 245 243 240 235 230 242 251 238 228 230 234 233 225 227 236 240
24 8 345 332 331 331 328 337 339 308 267 249 241 233 230 236 239 232 236 237 233 239 240 242 246 251 250 251 263 259 252 249 247 251 247 244 239 239 237 235 232 233 235
6 334 324 319 317 315 318 326 320 307 285 267 263 253 241 240 244 244 243 248 249 245 249 263 266 257 262 267 252 256 262 254 240 237 242 243 241 240 242 240 236 234 233
Height
1530 1530 1531 1531 1532 1532 1533 1533 1534 1534 1535 1536 1537 1538 1539 1540 1540 1540 1541 1541 1541 1541 1540 1540 1540 1540 1540 1540 1540 1540 1540 1540 1540 1540 1540 1539 1539 1538 1537 1536 1536 1535 1534
1528 1529 1530 1530 1530 1531 1532 1533 1533 1534 1535 1536 1537 1538 1539 1540 1540 1540 1541 1541 1541 1541 1541 1541 1541 1541 1541 1541 1541 1540 1541 1540 1540 1541 1541 1541 1541 1539 1539 1538 1537 1536 1535
1526 1527 1528 1529 1529 1530 1531 1532 1533 1534 1534 1535 1536 1538 1539 1539 1540 1540 1540 1541 1541 1542 1542 1542 1542 1541 1541 1541 1541 1541 1541 1541 1541 1541 1542 1541 1541 1541 1541 1539 1538 1537 1536
1524 1525 1526 1527 1528 1529 1530 1531 1532 1533 1534 1535 1535 1537 1538 1539 1540 1540 1540 1541 1541 1541 1541 1541 1541 1541 1542 1541 1541 1541 1541 1541 1541 1541 1540 1541 1541 1541 1541 1541 1540 1538 1537
1522 1523 1524 1525 1527 1527 1528 1529 1531 1532 1533 1534 1534 1536 1537 1538 1539 1539 1540 1541 1541 1541 1541 1541 1541 1541 1541 1541 1541 1541 1541 1541 1541 1541 1541 1540 1540 1541 1541 1541 1541 1540 1538
1519 1521 1523 1524 1525 1526 1526 1528 1529 1530 1531 1532 1533 1535 1536 1537 1538 1538 1539 1540 1540 1540 1540 1540 1541 1541 1541 1541 1541 1541 1541 1541 1541 1541 1541 1541 1541 1541 1541 1540 1540 1540 1539
1516 1518 1520 1521 1522 1523 1524 1526 1527 1528 1529 1531 1532 1533 1534 1535 1536 1537 1538 1538 1539 1539 1539 1539 1540 1540 1540 1541 1541 1541 1541 1541 1540 1540 1540 1540 1540 1540 1540 1540 1540 1539 1539
1514 1516 1517 1518 1520 1521 1522 1524 1525 1527 1528 1529 1530 1532 1533 1534 1535 1535 1536 1537 1537 1538 1538 1538 1539 1539 1539 1540 1540 1540 1540 1540 1540 1540 1539 1539 1539 1539 1539 1540 1539 1539 1539
1512 1514 1515 1517 1518 1519 1520 1522 1524 1525 1526 1528 1529 1530 1531 1532 1533 1533 1534 1535 1535 1536 1536 1537 1537 1538 1538 1538 1539 1539 1539 1539 1539 1539 1539 1539 1538 1538 1538 1538 1539 1539 1538
1510 1512 1513 1514 1516 1517 1518 1520 1522 1523 1524 1526 1527 1528 1529 1529 1530 1531 1532 1533 1534 1534 1534 1535 1535 1536 1536 1537 1537 1537 1537 1538 1538 1537 1538 1537 1537 1537 1536 1536 1537 1537 1537
1508 1510 1511 1512 1514 1515 1517 1518 1519 1521 1522 1523 1524 1525 1526 1527 1528 1529 1529 1530 1531 1532 1532 1533 1533 1534 1535 1535 1535 1535 1535 1536 1536 1536 1536 1536 1536 1535 1535 1535 1535 1535 1535
1506 1507 1508 1510 1511 1513 1514 1516 1517 1518 1519 1520 1521 1523 1524 1524 1525 1526 1527 1528 1529 1530 1531 1531 1531 1532 1532 1533 1533 1533 1534 1534 1534 1534 1534 1534 1534 1534 1534 1533 1534 1534 1534
1505 1505 1506 1508 1509 1510 1511 1513 1514 1515 1517 1518 1519 1520 1521 1522 1523 1524 1525 1526 1527 1527 1528 1529 1529 1529 1530 1530 1531 1531 1531 1532 1532 1532 1532 1532 1532 1532 1532 1532 1532 1532 1532
1503 1504 1504 1505 1506 1507 1509 1510 1511 1512 1514 1515 1516 1517 1518 1519 1520 1521 1522 1523 1524 1524 1525 1526 1526 1527 1527 1528 1528 1529 1529 1529 1529 1530 1530 1530 1530 1530 1530 1530 1530 1530 1529
1502 1502 1503 1503 1504 1505 1506 1507 1508 1509 1510 1512 1513 1514 1515 1516 1517 1518 1519 1519 1520 1521 1522 1523 1523 1524 1524 1525 1525 1526 1526 1527 1527 1527 1527 1527 1527 1527 1527 1527 1526 1527 1527
1500 1501 1501 1502 1502 1503 1503 1504 1505 1506 1507 1508 1510 1511 1511 1512 1513 1514 1515 1516 1516 1517 1518 1519 1520 1521 1521 1521 1522 1523 1523 1524 1524 1524 1524 1524 1524 1523 1523 1523 1523 1523 1523
1498 1499 1499 1499 1500 1500 1500 1501 1501 1502 1503 1505 1506 1507 1508 1509 1510 1511 1511 1512 1513 1514 1514 1515 1516 1517 1517 1518 1518 1519 1520 1520 1521 1521 1521 1520 1520 1520 1520 1520 1520 1519 1519
1497 1497 1497 1497 1498 1498 1498 1498 1499 1499 1500 1501 1502 1504 1505 1506 1506 1507 1508 1509 1509 1510 1511 1511 1512 1513 1513 1514 1514 1515 1516 1517 1517 1517 1517 1517 1517 1517 1517 1516 1516 1516 1516
1495 1495 1495 1495 1496 1495 1495 1495 1496 1496 1497 1498 1499 1500 1501 1502 1503 1504 1505 1505 1506 1506 1507 1508 1509 1509 1509 1510 1510 1511 1512 1513 1513 1513 1513 1513 1513 1513 1513 1513 1513 1513 1512
1493 1493 1493 1493 1493 1493 1493 1493 1493 1494 1494 1495 1496 1497 1498 1499 1500 1501 1501 1502 1502 1503 1504 1504 1504 1505 1505 1506 1506 1507 1508 1509 1509 1509 1509 1509 1509 1509 1509 1509 1509 1509 1508
1491 1491 1491 1491 1491 1491 1491 1491 1491 1491 1492 1492 1493 1494 1495 1496 1497 1497 1498 1498 1499 1499 1500 1500 1500 1501 1501 1502 1502 1503 1504 1504 1505 1505 1505 1505 1505 1505 1505 1505 1505 1505 1504
1490 1489 1489 1489 1489 1489 1489 1488 1488 1488 1489 1489 1490 1491 1492 1492 1493 1494 1494 1495 1496 1496 1496 1497 1497 1497 1498 1498 1498 1499 1499 1500 1500 1500 1500 1501 1501 1501 1501 1501 1501 1501 1501
1488 1488 1488 1488 1487 1487 1486 1486 1485 1485 1486 1486 1487 1488 1489 1489 1490 1490 1491 1492 1492 1492 1493 1493 1494 1494 1494 1494 1494 1494 1495 1495 1496 1496 1496 1496 1496 1496 1496 1496 1496 1496 1496
1487 1487 1487 1486 1486 1486 1485 1484 1483 1483 1483 1484 1484 1485 1485 1486 1486 1487 1488 1488 1488 1489 1489 1489 1490 1490 1490 1490 1490 1490 1491 1491 1491 1491 1491 1491 1491 1492 1492 1492 1492 1492 1492
1486 1486 1486 1485 1485 1484 1484 1483 1482 1481 1481 1482 1481 1481 1482 1482 1483 1483 1484 1484 1485 1485 1485 1485 1486 1486 1486 1486 1486 1485 1486 1486 1486 1486 1486 1487 1487 1487 1487 1487 1487 1487 1487
1485 1485 1485 1484 1483 1483 1482 1481 1480 1480 1480 1479 1479 1478 1478 1478 1479 1480 1480 1481 1481 1481 1481 1481 1482 1482 1482 1482 1481 1481 1481 1481 1481 1482 1482 1482 1482 1482 1482 1482 1482 1482 1482